This is the latest recevied weather packets stored in our database for station/object AJ5AG. If no packets are shown the sender has not sent any weather packets the latest 10 day(s).
| Time | Temp. | Humidity | Pressure | Rain* | Wind** | Luminosity | Snow |
|---|---|---|---|---|---|---|---|
| 1777737051 | 20.56° C | 69% | 1024 hPa | 0 mm | - | 631 W/m² | - |
| 1777736118 | 19.44° C | 73% | 1024 hPa | 0 mm | - | 590 W/m² | - |
| 1777735815 | 20° C | 75% | 1023.9 hPa | 0 mm | - | 575 W/m² | - |
| 1777735513 | 19.44° C | 75% | 1023.9 hPa | 0 mm | - | 562 W/m² | - |
| 1777735211 | 18.89° C | 74% | 1023.9 hPa | 0 mm | - | 547 W/m² | - |
| 1777734907 | 18.33° C | 79% | 1023.8 hPa | 0 mm | - | 530 W/m² | - |
| 1777734604 | 18.33° C | 78% | 1023.9 hPa | 0 mm | - | 515 W/m² | - |
| 1777734302 | 17.78° C | 82% | 1023.9 hPa | 0 mm | - | 498 W/m² | - |
| 1777733997 | 17.22° C | 86% | 1023.9 hPa | 0 mm | - | 483 W/m² | - |
| 1777733694 | 16.67° C | 87% | 1023.9 hPa | 0 mm | - | 467 W/m² | - |
| 1777733391 | 16.67° C | 93% | 1023.9 hPa | 0 mm | - | 473 W/m² | - |
| 1777732784 | 16.11° C | 99% | 1023.8 hPa | 0 mm | - | 432 W/m² | - |
| 1777732481 | 15.56° C | 99% | 1023.9 hPa | 0 mm | - | 411 W/m² | - |
| 1777732178 | 15° C | 99% | 1023.9 hPa | 0 mm | - | 383 W/m² | - |
| 1777731875 | 14.44° C | 99% | 1023.9 hPa | 0 mm | - | 357 W/m² | - |
| 1777731572 | 14.44° C | 99% | 1023.9 hPa | 0 mm | - | 109 W/m² | - |
| 1777731270 | 13.89° C | 99% | 1023.8 hPa | 0 mm | - | 86 W/m² | - |
| 1777730967 | 13.89° C | 99% | 1023.4 hPa | 0 mm | - | 67 W/m² | - |
| 1777730665 | 13.33° C | 99% | 1023.5 hPa | 0 mm | - | 50 W/m² | - |
| 1777730361 | 13.33° C | 99% | 1023.2 hPa | 0 mm | - | 68 W/m² | - |
| 1777729754 | 12.78° C | 99% | 1023.3 hPa | 0 mm | - | 46 W/m² | - |
| 1777729451 | 12.78° C | 99% | 1023.3 hPa | 0 mm | - | 40 W/m² | - |
| 1777729148 | 12.78° C | 99% | 1023.4 hPa | 0 mm | - | 38 W/m² | - |
| 1777728844 | 12.22° C | 99% | 1023.1 hPa | 0 mm | - | 37 W/m² | - |
| 1777728541 | 12.22° C | 99% | 1022.9 hPa | 0 mm | - | 36 W/m² | - |
* Rain latest hour (hover to see other rain measurements)
** Current wind speed in m/s (hover to see current wind gust speed)